Location: West Chester
(39.9610°N, 75.6060°W)
Time: 21:10:55
(UTC-04:00)

ARIANE 6 FM1 Upper Stage - Pass Details

Date: 25 September 2024
Orbit: 563 x 594 km, 62.0° (Epoch: 11 October)

Event Time Altitude Azimuth Distance (km) Brightness Sun altitude
Rises 21:02:11 0° 272° (W) 2,786 7.4 -25.0°
Reaches altitude 10° 21:05:52 10° 305° (NW) 1,900 6.3 -25.7°
Maximum altitude 21:07:28 12° 327° (NNW) 1,792 5.9 -25.9°
Drops below altitude 10° 21:09:03 10° 349° (NNW) 1,911 5.7 -26.2°
Enters shadow 21:12:35 - 20° (NNE) 2,755 6.2 -26.9°
